Location: ???? ????
(31.2831°N, 45.5190°E)
Time: 17:27:58
(UTC+00:00)

Tiangong - Pass Details

Date: 30 September 2021
Orbit: 382 x 384 km, 41.5° (Epoch: 20 October)

Event Time Altitude Azimuth Distance (km) Brightness Sun altitude
Exits shadow 01:41:21 14° 332° (NNW) 1,205 3.3 -15.7°
Maximum altitude 01:42:13 15° 351° (N) 1,148 3.4 -15.5°
Drops below altitude 10° 01:44:06 10° 28° (NNE) 1,395 4.3 -15.1°
Sets 01:46:50 0° 53° (NE) 2,248 6.0 -14.5°
